Tracking 35048 objects as of 19-Aug-2026
HD Live streaming from Space Station
objects crossing your sky now

STARLINK-35080

Track STARLINK-35080 now!
10-day predictions
STARLINK-35080 is classified as:


NORAD ID: 65437
Int'l Code: 2025-194D
Launch date: September 3, 2025
Source: United States (US)
Launch site: AIR FORCE WESTERN TEST RANGE (AFWTR)
Your satellite tracking list
Your tracking list is empty




NASA's NSSDC Master Catalog

Two Line Element Set (TLE):
1 65437U 25194D   26231.25004630 -.00045091  00000-0 -14030-2 0  9991
2 65437  97.2858  81.3099 0001678  84.2626 240.6403 15.33436085  5749
Source of the keplerian elements: AFSPC